BREEZE-M DEB [TANK] (45988 NORAD) Tracking and Keplerian Element Data

This shows tracking and keplerian element data for the satellite.

Feedback or suggestion? Click here.




ElementValue
Catalog45988
NameBREEZE-M DEB [TANK]
Epoch Orbit107
Epoch Day241.16099602
Epoch Year2020
RAAN266.4952
Inclination49.4994
Eccentricity0.6278542
Argument of Perigee190.7485
Mean Anonmoly144.2093
Mean Motion3.52893441
Decay Rate1.6E-07
L11 45988U 20053D 20241.16099602 .00000016 00000-0 00000-0 0 9993
L22 45988 49.4994 266.4952 6278542 190.7485 144.2093 3.52893441 1077



Live tracking and technical data element details for BREEZE-M DEB [TANK] (NORAD 45988). BREEZE-M DEB [TANK] can be tracked NOW for your location showing map with azimuth and elevation plus other details from your city location.







IsCatalogInMostPopularTable: catalog: 45988, numindb: 128
Update: records affected: 1



GetName: 45988 BREEZE-M DEB [TANK]

Hit Count: updated at: Sun, 28 May 2023 19:20:50 GMT